Regional Weather Roundup
Issued by NWS Charleston, SC

Current Version | Previous Version | Text Only | Print | Product List | Glossary Off
Versions: 1 2 3 4 5 6 7 8 9 10 11 12 13 14 15 16 17 18 19 20 21 22 23 24 25 26 27 28 29 30 31 32 33 34 35 36 37 38 39 40 41 42 43 44 45 46 47 48 49 50

000
ASUS42 KCHS 190211
RWRCHS

REGIONAL WEATHER ROUNDUP
NATIONAL WEATHER SERVICE CHARLESTON SC
1000 PM EDT SAT APR 18 2015

NOTE: "FAIR" INDICATES FEW OR NO CLOUDS BELOW 12,000 FEET WITH NO
SIGNIFICANT WEATHER AND/OR OBSTRUCTIONS TO VISIBILITY.

NOT ALL STATIONS ARE QUALITY CONTROLLED BY THE NATIONAL
WEATHER SERVICE. USE DATA WITH CAUTION...ESPECIALLY
DEWPOINT OBSERVATIONS.

SCZ027-030-031-034>040-042>050-190300-
...SOUTHEAST SOUTH CAROLINA...

CITY           SKY/WX    TMP DP  RH WIND       PRES   REMARKS
N CHARLESTON   CLOUDY    68  65  90 E5        29.99R
WATERFRONT PRK   N/A     68 N/A N/A E5          N/A
MOUNT PLEASANT FAIR      66  66 100 CALM      29.99R FOG
PINOPOLIS      NOT AVBL
MONCKS CORNER  CLOUDY    70  66  88 SE3       29.99R
SUMMERVILLE    CLOUDY    68  68 100 CALM      30.00R
BEAUFORT MCAS  CLOUDY    71  68  90 SE6       29.98R
BEAUFORT ARPT  CLOUDY    70  70 100 CALM      29.98R
HILTON HEAD IS MOCLDY    70  70 100 CALM      30.00R
WALTERBORO     MOCLDY    66  64  94 SE5       29.99R
ALLENDALE      FAIR      70  68  94 CALM      29.97R

...SOUTHERN MIDLANDS AND PEE DEE...

CITY           SKY/WX    TMP DP  RH WIND       PRES   REMARKS
GEORGETOWN     NOT AVBL
KINGSTREE      NOT AVBL
ORANGEBURG     MOCLDY    68  65  90 SE5       29.96R
BARNWELL       FAIR      68  68 100 CALM      29.98R
AIKEN          FAIR      63  61  94 CALM      30.00R
MANNING        RAIN      66  59  77 SE5       29.98S
COLUMBIA       MOCLDY    70  65  84 CALM      29.97R
SUMTER         CLOUDY    69  67  93 E6        29.96R
FLORENCE       CLOUDY    70  65  84 S7        29.98R
MYRTLE BEACH   CLEAR     68  63  83 CALM      30.00R
N MYRTLE BEACH CLOUDY    66  64  93 CALM      29.98R

$$

GAZ063-065-086>088-099>101-113>116-118-119-134>141-150-190300-
...SOUTHEAST GEORGIA...

CITY           SKY/WX    TMP DP  RH WIND       PRES   REMARKS
SAVANNAH ARPT  MOCLDY    69  66  90 SE6       29.98R
HUNTER AAF     MOCLDY    69  69 100 E5        29.96R
FORT STEWART   MOCLDY    70  67  90 SE2       29.96R
STATESBORO       N/A     72  72 100 CALM      29.97R
SYLVANIA       CLOUDY    70  70  98 E3        29.98R
CLAXTON        LGT RAIN  72  70  94 CALM      29.97R

...CSRA...CENTRAL AND FAR SOUTHEAST GEORGIA...

CITY           SKY/WX    TMP DP  RH WIND       PRES   REMARKS
THOMSON          N/A     67  67 100 CALM      30.01R VSB 1
AUGUSTA-BUSH   MOCLDY    64  64 100 CALM      29.96R
AUGUSTA-DANIEL MOCLDY    69  65  86 E3        29.97R
SWAINSBORO     NOT AVBL
VIDALIA        RAIN      72  70  94 CALM      29.97R
EASTMAN        MOCLDY    71  71 100 CALM      29.99R
HAZLEHURST     MOCLDY    73  72  96 CALM      29.96R
ALMA           CLOUDY    75  69  81 W6        29.96R
WAYCROSS       CLOUDY    76  72  86 SW3       29.97R
JESUP          FAIR      75  72  88 S3        29.98R
BAXLEY         CLOUDY    75  72  88 CALM      29.96R
BRUNSWICK      CLOUDY    72  68  88 CALM      29.99R
SAINT SIMONS   LGT RAIN  70  69  97 S5        29.98R

$$

SCZ027-028-034-036>038-045-046-048>050-GAZ119-141-190300-
...LAKE AND SUPPLEMENTAL COASTAL OBSERVATIONS...

STATION/POSITION TIME  TEMP    WIND        PRES    WAVE   SWELL
                       AIR SEA DIR/SP/G            HT/PER HT/PER/DIR
                 (UTC) (F)     (DEG/KT/KT) (MB)    (FT/S) (FT/S/D)
UPR LAKE MARION  NOT AVBL
WINYAH BAY       NOT AVBL
LAKE MURRAY      0100   69      80/  2/  3 1013.5R
ACE BASIN NERRS  NOT AVBL
FORT PULASKI     0106   69 71  120/  3/  4 1015.1R
SAPELO ISLAND    0100   72     180/  7     1015.0R

$$

ANZ835-935-AMZ111-154-330-350-352-354-370-450-454-472-190300-
...C-MAN AND BUOY OBSERVATIONS...

STATION/POSITION TIME  TEMP    WIND        PRES    WAVE   SWELL
                       AIR SEA DIR/SP/G            HT/PER HT/PER/DIR
                 (UTC) (F)     (DEG/KT/KT) (MB)    (FT/S) (FT/S/D)
BUOY 41004       0150   73 75  130/  2/  4 1014.7R   3/ 8   3/ 8
BUOY 41008       0150   71 67  200/ 10/ 12 1015.1R   2/ 9   2/100/ 9
FOLLY BEACH CMAN 0100   67      80/  7/  8 1014.6R
CAPERS NEARSHORE NOT AVBL
FRIPP NEARSHORE  0100   69     110/  6/  6 1014.1R


STATION/POSITION TIME  TEMP    WIND        PRES    WAVE   SWELL
                       AIR SEA DIR/SP/G            HT/PER HT/PER/DIR
                 (UTC) (F)     (DEG/KT/KT) (MB)    (FT/S) (FT/S/D)
5E ST. MARYS GA  0121      71                N/A     2/ 9   2/ 70/11
FRYING PAN BUOY  0150   74 74  130/  8/ 10 1015.2R   4/ 9   3/120/ 9
BUOY 41025       0150   69 76   20/ 10/ 12 1015.6R   4/ 9   5/ 80/ 9
CAPE LOOKOUT NC  0100   68     350/  2/  2 1015.2R
BUOY 41002       0150   72 75  160/  4/  6 1015.2R   5/ 9   5/ 70/ 9
BUOY 41010       0120   77 79  110/  4/  6 1015.1R
ST AUGUSTINE FL  0200   72 72   60/  4/  4 1016.1R


$$


USA.gov is the U.S. government's official web portal to all federal, state and local government web resources and services.